Simultaneous Nadir Overpasses (SNOs) Predictions

Prediction of SNOs between GOES-15 and NOAA-20 Satellite Orbit:

Table of predicted SNOs for the next 14.0 days since TLE Epoch: 5/27/2023
Index Date Time (GOES-15) GOES-15 Lat,Lon NOAA-20 Lat,Lon Distance(km) Time Diff (sec)
1 05/28/2023 11:50:22 0.02,-153.78 0.43,-155.70 219.16 80
2 05/29/2023 11:28:57 0.05,-154.20 -0.61,-151.18 344.51 80
3 05/30/2023 23:50:57 -0.01,-154.84 -0.39,-156.52 190.73 80
4 05/31/2023 23:34:53 -0.03,-155.27 0.71,-152.00 372.45 80
5 06/02/2023 11:56:43 -0.01,-155.93 0.28,-157.30 156.82 80
6 06/03/2023 11:35:19 0.02,-156.34 -0.76,-152.78 405.55 80
7 06/04/2023 23:57:18 0.02,-156.96 -0.23,-158.12 131.98 80
8 06/05/2023 23:41:15 0.00,-157.37 0.87,-153.60 429.81 80
9 06/07/2023 12:00:24 -0.03,-158.01 0.18,-158.89 101.36 80
10 06/08/2023 11:44:21 -0.01,-158.41 -0.92,-154.38 460.06 80
11 06/10/2023 00:03:39 0.04,-159.02 -0.12,-159.71 78.65 80
